TimeMST,TemperatureF,Dew PointF,Humidity,Sea Level PressureIn,VisibilityMPH,Wind Direction,Wind SpeedMPH,Gust SpeedMPH,PrecipitationIn,Events,Conditions,WindDirDegrees,DateUTC
12:53 AM,39.9,23.0,51,29.93,10.0,WSW,23.0,35.7,N/A,,Clear,240,2013-11-09 07:53:00
1:53 AM,37.9,24.1,57,29.96,10.0,South,10.4,-,N/A,,Overcast,190,2013-11-09 08:53:00
2:53 AM,37.9,24.1,57,29.96,10.0,South,12.7,-,N/A,,Overcast,190,2013-11-09 09:53:00
3:53 AM,34.0,23.0,64,29.99,10.0,SSW,12.7,-,N/A,,Partly Cloudy,210,2013-11-09 10:53:00
4:53 AM,35.1,23.0,61,30.02,10.0,SSW,13.8,-,N/A,,Partly Cloudy,200,2013-11-09 11:53:00
5:53 AM,36.0,23.0,59,30.03,10.0,SW,19.6,-,N/A,,Clear,220,2013-11-09 12:53:00
6:53 AM,37.0,21.9,54,30.05,10.0,SW,18.4,-,N/A,,Clear,220,2013-11-09 13:53:00
7:53 AM,39.0,21.9,50,30.05,10.0,SW,17.3,-,N/A,,Partly Cloudy,230,2013-11-09 14:53:00
8:53 AM,44.1,21.9,42,30.03,10.0,WSW,15.0,-,N/A,,Clear,240,2013-11-09 15:53:00
9:53 AM,48.0,21.9,36,30.02,10.0,WSW,24.2,-,N/A,,Clear,240,2013-11-09 16:53:00
10:53 AM,51.1,19.9,29,30.02,10.0,WSW,20.7,-,N/A,,Partly Cloudy,250,2013-11-09 17:53:00
11:53 AM,54.0,19.0,25,30.00,10.0,West,18.4,27.6,N/A,,Clear,260,2013-11-09 18:53:00
12:53 PM,55.0,19.0,24,29.98,10.0,West,15.0,23.0,N/A,,Clear,270,2013-11-09 19:53:00
1:53 PM,53.1,21.0,29,30.00,10.0,WSW,13.8,-,N/A,,Partly Cloudy,250,2013-11-09 20:53:00
2:53 PM,52.0,21.9,31,30.03,10.0,West,6.9,-,N/A,,Clear,280,2013-11-09 21:53:00
3:53 PM,50.0,21.9,33,30.07,10.0,WNW,8.1,-,N/A,,Partly Cloudy,300,2013-11-09 22:53:00
4:53 PM,45.0,21.9,40,30.12,10.0,West,9.2,-,N/A,,Clear,270,2013-11-09 23:53:00
5:53 PM,42.1,21.9,45,30.14,10.0,WNW,12.7,-,N/A,,Clear,290,2013-11-10 00:53:00
6:53 PM,37.9,24.1,57,30.17,10.0,SSE,6.9,-,N/A,,Clear,150,2013-11-10 01:53:00
7:53 PM,36.0,24.1,62,30.18,10.0,SSE,8.1,-,N/A,,Clear,150,2013-11-10 02:53:00
8:53 PM,34.0,25.0,70,30.16,10.0,South,11.5,-,N/A,,Clear,190,2013-11-10 03:53:00
9:53 PM,35.1,26.1,70,30.14,10.0,SSE,13.8,-,N/A,,Clear,150,2013-11-10 04:53:00
10:53 PM,32.0,25.0,75,30.13,10.0,SE,8.1,-,N/A,,Clear,140,2013-11-10 05:53:00
11:53 PM,30.0,24.1,79,30.13,10.0,SSE,6.9,-,N/A,,Clear,160,2013-11-10 06:53:00